Location: Casilda
(33.0440°S, 61.1680°W)
Time: 18:38:26
(UTC-03:00)

ISS - Pass Details

Date: 29 January 2021
Orbit: 417 x 422 km, 51.6° (Epoch: 26 February)

Event Time Altitude Azimuth Distance (km) Brightness Sun altitude
Exits shadow 03:50:40 21° 167° (SSE) 1,022 -1.2 -27.4°
Drops below altitude 10° 03:52:07 10° 151° (SSE) 1,524 0.0 -27.2°
Sets 03:54:21 0° 141° (SE) 2,394 1.4 -26.9°
